User: anonymous   Login
Location: Lesignano de� Bagni
(44.6500°N, 10.3000°E)
Time: 11:01:49
(UTC+00:00)
Language:

Cosmos 2263 Rocket - Orbit

View from above orbital plane
View from above orbital plane
View from above satellite
View from above satellite

Ground track
Ground track

The orbit data is extracted from the following two-line orbital elements,

1 22803U 93059B   21132.19221096 -.00000233  00000-0 -91935-4 0  9991
2 22803  70.9880 126.4727 0016760   7.5653 352.5720 14.16834512430123
Epoch (UTC): 12 May 2021 04:36:47
Eccentricity: 0.0016760
inclination: 70.9880°
perigee height: 824 km
apogee height: 848 km
right ascension of ascending node: 126.4727°
argument of perigee: 7.5653°
revolutions per day: 14.16834512
mean anomaly at epoch: 352.5720°
orbit number at epoch: 43012

The dashed part of the orbit path shows where the satellite is in the earth's shadow,  

DLR